| time (UTC) | temp C | wind direction | speed KPH | gust KPH | rain 1hr cm | rain 24hr cm | rain mn cm | humidity % | barometer mb |
| 20260510230047 | 25 | 301 | 0.0 | 1.6 | 0.00 | 0.00 | 0.00 | 61 | 1015.4 |
| 20260510224550 | 27 | 301 | 0.0 | 0.0 | 0.00 | 0.00 | 0.00 | 54 | 1015.5 |
| 20260510223045 | 28 | 269 | 0.0 | 4.8 | 0.00 | 0.00 | 0.00 | 54 | 1015.5 |
| 20260510221544 | 28 | 66 | 0.0 | 3.2 | 0.00 | 0.00 | 0.00 | 55 | 1015.5 |
| 20260510220044 | 28 | 212 | 0.0 | 0.0 | 0.00 | 0.00 | 0.00 | 53 | 1015.6 |
| 20260510214543 | 28 | 212 | 0.0 | 0.0 | 0.00 | 0.00 | 0.00 | 52 | 1015.7 |
| 20260510213044 | 28 | 191 | 0.0 | 0.0 | 0.00 | 0.00 | 0.00 | 54 | 1015.7 |
| 20260510211522 | 28 | 127 | 0.0 | 1.6 | 0.00 | 0.00 | 0.00 | 54 | 1015.6 |
| 20260510210019 | 26 | 131 | 0.0 | 0.0 | 0.00 | 0.00 | 0.00 | 63 | 1015.9 |
| 20260510204507 | 26 | 130 | 0.0 | 1.6 | 0.00 | 0.00 | 0.00 | 62 | 1016.1 |
| 20260510203009 | 27 | 139 | 0.0 | 1.6 | 0.00 | 0.00 | 0.00 | 57 | 1016.2 |
| 20260510201504 | 27 | 257 | 0.0 | 3.2 | 0.00 | 0.00 | 0.00 | 55 | 1016.4 |
| 20260510200003 | 28 | 234 | 0.0 | 3.2 | 0.00 | 0.00 | 0.00 | 57 | 1016.5 |
| 20260510194501 | 27 | 82 | 0.0 | 9.7 | 0.00 | 0.00 | 0.00 | 52 | 1016.5 |
| 20260510193102 | 27 | 4 | 1.6 | 6.4 | 0.00 | 0.00 | 0.00 | 56 | 1016.6 |
| 20260510191557 | 27 | 262 | 0.0 | 4.8 | 0.00 | 0.00 | 0.00 | 59 | 1016.6 |
| 20260510184606 | 26 | 294 | 0.0 | 6.4 | 0.00 | 0.00 | 0.00 | 61 | 1017.0 |
| 20260510183041 | 27 | 323 | 0.0 | 3.2 | 0.00 | 0.00 | 0.00 | 63 | 1017.0 |
| 20260510181552 | 26 | 243 | 0.0 | 3.2 | 0.00 | 0.00 | 0.00 | 65 | 1017.1 |
| 20260510180043 | 25 | 47 | 1.6 | 6.4 | 0.00 | 0.00 | 0.00 | 69 | 1017.3 |
| 20260510174531 | 23 | 200 | 0.0 | 0.0 | 0.00 | 0.00 | 0.00 | 80 | 1017.6 |
| 20260510173031 | 23 | 200 | 0.0 | 0.0 | 0.00 | 0.00 | 0.00 | 77 | 1017.7 |
| 20260510171530 | 25 | 200 | 0.0 | 1.6 | 0.00 | 0.00 | 0.00 | 75 | 1017.6 |
| 20260510170028 | 25 | 280 | 0.0 | 8.0 | 0.00 | 0.00 | 0.00 | 77 | 1017.5 |
| 20260510164508 | 24 | 278 | 1.6 | 9.7 | 0.00 | 0.00 | 0.00 | 79 | 1017.6 |
| 20260510163006 | 24 | 278 | 1.6 | 9.7 | 0.00 | 0.00 | 0.00 | 82 | 1017.8 |
| 20260510161546 | 23 | 273 | 1.6 | 4.8 | 0.00 | 0.00 | 0.00 | 84 | 1017.8 |
| 20260510160049 | 23 | 242 | 0.0 | 8.0 | 0.00 | 0.00 | 0.00 | 86 | 1017.8 |
| 20260510154545 | 22 | 274 | 1.6 | 8.0 | 0.00 | 0.00 | 0.00 | 88 | 1017.7 |
| 20260510153041 | 22 | 161 | 0.0 | 4.8 | 0.00 | 0.00 | 0.00 | 92 | 1017.7 |
| 20260510151521 | 21 | 181 | 0.0 | 4.8 | 0.00 | 0.00 | 0.00 | 96 | 1017.7 |
| 20260510150019 | 20 | 261 | 0.0 | 1.6 | 0.00 | 0.00 | 0.00 | 99 | 1017.8 |
| 20260510144529 | 18 | 264 | 0.0 | 3.2 | 0.00 | 0.00 | 0.00 | 100 | 1017.9 |
| 20260510143011 | 18 | 259 | 0.0 | 1.6 | 0.00 | 0.00 | 0.00 | 100 | 1017.9 |
| 20260510141509 | 17 | 274 | 0.0 | 1.6 | 0.00 | 0.00 | 0.00 | 100 | 1017.8 |
| 20260510140005 | 17 | 18 | 0.0 | 1.6 | 0.00 | 0.00 | 0.00 | 100 | 1017.8 |
| 20260510134552 | 16 | 18 | 0.0 | 1.6 | 0.00 | 0.00 | 0.00 | 100 | 1017.9 |
| 20260510133049 | 16 | 352 | 0.0 | 0.0 | 0.00 | 0.00 | 0.00 | 100 | 1017.8 |
| 20260510131545 | 15 | 351 | 0.0 | 1.6 | 0.00 | 0.00 | 0.00 | 100 | 1017.9 |
| 20260510130044 | 15 | 50 | 0.0 | 1.6 | 0.00 | 0.00 | 0.00 | 100 | 1017.8 |
| 20260510124545 | 15 | 50 | 0.0 | 1.6 | 0.00 | 0.00 | 0.00 | 100 | 1017.8 |
| 20260510123037 | 14 | 71 | 0.0 | 0.0 | 0.00 | 0.00 | 0.00 | 100 | 1017.6 |
| 20260510121534 | 13 | 71 | 0.0 | 1.6 | 0.00 | 0.00 | 0.00 | 100 | 1017.4 |
| 20260510120032 | 13 | 160 | 0.0 | 0.0 | 0.00 | 0.00 | 0.00 | 100 | 1017.1 |
| 20260510114517 | 13 | 160 | 0.0 | 0.0 | 0.00 | 0.00 | 0.00 | 100 | 1016.9 |
| 20260510113020 | 12 | 160 | 0.0 | 0.0 | 0.00 | 0.00 | 0.00 | 100 | 1016.7 |
| 20260510111512 | 12 | 160 | 0.0 | 0.0 | 0.00 | 0.00 | 0.00 | 100 | 1016.3 |
| 20260510110015 | 12 | 160 | 0.0 | 0.0 | 0.00 | 0.00 | 0.00 | 100 | 1016.3 |
| 20260510104508 | 12 | 160 | 0.0 | 0.0 | 0.00 | 0.00 | 0.00 | 100 | 1016.0 |
| 20260510103005 | 11 | 160 | 0.0 | 0.0 | 0.00 | 0.00 | 0.00 | 100 | 1015.6 |
| 20260510101504 | 11 | 160 | 0.0 | 0.0 | 0.00 | 0.00 | 0.00 | 100 | 1015.7 |
| 20260510100004 | 11 | 160 | 0.0 | 0.0 | 0.00 | 0.00 | 0.00 | 100 | 1015.4 |
| 20260510094556 | 11 | 160 | 0.0 | 0.0 | 0.00 | 0.00 | 0.00 | 100 | 1015.4 |
| 20260510093049 | 11 | 160 | 0.0 | 0.0 | 0.00 | 0.00 | 0.00 | 100 | 1015.4 |
| 20260510091536 | 11 | 160 | 0.0 | 0.0 | 0.00 | 0.00 | 0.00 | 100 | 1015.3 |
| 20260510090035 | 11 | 160 | 0.0 | 0.0 | 0.00 | 0.00 | 0.00 | 100 | 1015.5 |
| 20260510084544 | 11 | 160 | 0.0 | 0.0 | 0.00 | 0.00 | 0.00 | 100 | 1015.3 |
| 20260510083029 | 11 | 160 | 0.0 | 0.0 | 0.00 | 0.00 | 0.00 | 100 | 1015.1 |
| 20260510081532 | 11 | 160 | 0.0 | 0.0 | 0.00 | 0.00 | 0.00 | 100 | 1014.8 |
| 20260510080025 | 11 | 160 | 0.0 | 0.0 | 0.00 | 0.00 | 0.00 | 99 | 1014.7 |
| 20260510074525 | 11 | 160 | 0.0 | 0.0 | 0.00 | 0.00 | 0.00 | 100 | 1014.6 |
| 20260510073036 | 11 | 160 | 0.0 | 0.0 | 0.00 | 0.00 | 0.00 | 99 | 1014.5 |
| 20260510071504 | 11 | 160 | 0.0 | 0.0 | 0.00 | 0.00 | 0.00 | 99 | 1014.5 |
| 20260510070008 | 11 | 160 | 0.0 | 0.0 | 0.00 | 0.00 | 0.00 | 99 | 1014.6 |
| 20260510064552 | 12 | 160 | 0.0 | 0.0 | 0.00 | 0.00 | 0.00 | 99 | 1014.5 |
| 20260510063051 | 12 | 160 | 0.0 | 0.0 | 0.00 | 0.00 | 0.00 | 99 | 1014.4 |
| 20260510061601 | 12 | 160 | 0.0 | 0.0 | 0.00 | 0.00 | 0.00 | 99 | 1014.5 |
| 20260510060048 | 12 | 160 | 0.0 | 0.0 | 0.00 | 0.00 | 0.00 | 99 | 1014.5 |
| 20260510054545 | 12 | 160 | 0.0 | 0.0 | 0.00 | 0.00 | 0.00 | 99 | 1014.6 |
| 20260510053053 | 12 | 160 | 0.0 | 0.0 | 0.00 | 0.00 | 0.00 | 99 | 1014.6 |
| 20260510051543 | 12 | 160 | 0.0 | 0.0 | 0.00 | 0.00 | 0.00 | 98 | 1014.6 |
| 20260510050040 | 12 | 160 | 0.0 | 0.0 | 0.00 | 0.00 | 0.00 | 98 | 1014.7 |
| 20260510044523 | 12 | 160 | 0.0 | 0.0 | 0.00 | 0.00 | 0.00 | 98 | 1014.7 |
| 20260510043022 | 12 | 160 | 0.0 | 0.0 | 0.00 | 0.00 | 0.00 | 98 | 1014.6 |
| 20260510041511 | 12 | 160 | 0.0 | 0.0 | 0.00 | 0.00 | 0.00 | 98 | 1014.7 |
| 20260510040010 | 13 | 160 | 0.0 | 0.0 | 0.00 | 0.00 | 0.00 | 98 | 1014.6 |
| 20260510034509 | 13 | 160 | 0.0 | 0.0 | 0.00 | 0.00 | 0.00 | 98 | 1014.6 |
| 20260510033008 | 13 | 160 | 0.0 | 0.0 | 0.00 | 0.00 | 0.00 | 97 | 1014.5 |
| 20260510031508 | 13 | 160 | 0.0 | 0.0 | 0.00 | 0.00 | 0.00 | 97 | 1014.6 |
| 20260510030006 | 13 | 160 | 0.0 | 0.0 | 0.00 | 0.00 | 0.00 | 97 | 1014.4 |
| 20260510024504 | 14 | 160 | 0.0 | 0.0 | 0.00 | 0.00 | 0.00 | 96 | 1014.2 |
| 20260510023002 | 14 | 160 | 0.0 | 0.0 | 0.00 | 0.00 | 0.00 | 96 | 1013.9 |
| 20260510021559 | 15 | 160 | 0.0 | 0.0 | 0.00 | 0.00 | 0.00 | 96 | 1013.6 |
| 20260510020046 | 15 | 160 | 0.0 | 0.0 | 0.00 | 0.00 | 0.00 | 95 | 1013.3 |
| 20260510014546 | 15 | 160 | 0.0 | 0.0 | 0.00 | 0.00 | 0.00 | 94 | 1012.9 |
| 20260510013050 | 16 | 160 | 0.0 | 0.0 | 0.00 | 0.00 | 0.00 | 94 | 1012.7 |
| 20260510011544 | 16 | 160 | 0.0 | 0.0 | 0.00 | 0.00 | 0.00 | 93 | 1012.4 |
| 20260510010042 | 17 | 160 | 0.0 | 0.0 | 0.00 | 0.00 | 0.00 | 91 | 1012.2 |
| 20260510004542 | 18 | 160 | 0.0 | 0.0 | 0.00 | 0.00 | 0.00 | 89 | 1012.0 |
| 20260510003043 | 19 | 160 | 0.0 | 0.0 | 0.00 | 0.00 | 0.00 | 88 | 1011.8 |
| 20260510001540 | 20 | 160 | 0.0 | 0.0 | 0.00 | 0.00 | 0.00 | 86 | 1011.6 |
| 20260510000028 | 21 | 160 | 0.0 | 0.0 | 0.00 | 0.00 | 0.00 | 83 | 1011.5 |
| 20260509234535 | 22 | 160 | 0.0 | 0.0 | 0.00 | 0.00 | 0.00 | 77 | 1011.7 |
| 20260509233027 | 22 | 160 | 0.0 | 0.0 | 0.00 | 0.00 | 0.00 | 76 | 1011.7 |
| 20260509231528 | 22 | 160 | 0.0 | 0.0 | 0.00 | 0.00 | 0.00 | 75 | 1011.7 |